Location: Colebrook
(42.0017°N, 73.0973°W)
Time: 04:10:07
(UTC-04:00)

Transit 2A - All Passes

Search period start: 21 October 2021 00:00
Search period end: 31 October 2021 00:00
Orbit: 593 x 965 km, 66.7° (Epoch: 20 October)

Date Brightness Start Highest point End Pass type
(mag) Time Alt. Az. Time Alt. Az. Time Alt. Az.
21 Oct - 10:59:13 10° SSW 11:04:06 58° ESE 11:09:36 10° NE daylight
21 Oct - 12:43:30 10° W 12:47:47 25° NW 12:52:26 10° N daylight
21 Oct - 18:02:57 10° N 18:06:25 15° NE 18:09:57 10° ENE daylight
21 Oct - 19:44:47 10° NNW 19:51:01 58° NE 19:57:17 10° SE visible
21 Oct - 21:28:43 10° NW 21:33:55 27° WSW 21:39:05 10° SSW visible
22 Oct - 10:25:25 10° S 10:30:02 39° ESE 10:35:09 10° NE daylight
22 Oct - 12:08:38 10° WSW 12:13:19 33° NW 12:18:27 10° NNE daylight
22 Oct - 17:29:27 10° N 17:31:44 12° NNE 17:34:02 10° NE daylight
22 Oct - 19:10:41 10° NNW 19:16:40 43° NE 19:22:42 10° ESE visible
22 Oct - 20:54:06 10° NW 20:59:53 38° WSW 21:05:38 10° S visible
23 Oct - 09:51:54 10° SSE 09:56:02 26° ESE 10:00:32 10° NE daylight
23 Oct - 11:33:59 10° SW 11:38:54 45° NW 11:44:24 10° NNE daylight
23 Oct - 13:22:08 10° NW 13:23:48 11° NNW 13:25:30 10° NNW daylight
23 Oct - 18:36:38 10° NNW 18:42:15 33° NE 18:47:57 10° ESE visible
23 Oct - 20:19:39 10° NW 20:25:48 53° WSW 20:31:54 10° S visible
24 Oct - 09:18:46 10° SE 09:22:06 18° ESE 09:25:37 10° ENE daylight
24 Oct - 10:59:31 10° SW 11:04:35 64° WNW 11:10:16 10° NNE daylight
24 Oct - 12:46:12 10° WNW 12:49:07 14° NNW 12:52:09 10° N daylight
24 Oct - 18:02:39 10° N 18:07:47 26° NE 18:12:59 10° E daylight
24 Oct - 19:45:19 10° NW 19:51:38 73° WSW 19:57:57 10° SSE visible
24 Oct - 21:31:46 10° W 21:33:53 12° W 21:35:58 10° WSW visible
25 Oct - 08:46:37 10° ESE 08:48:13 11° E 08:49:51 10° E daylight
25 Oct - 10:25:15 10° SSW 10:30:20 90° E 10:36:04 10° NNE daylight
25 Oct - 12:10:47 10° W 12:14:29 18° NW 12:18:26 10° N daylight
25 Oct - 17:28:44 10° N 17:33:14 20° NE 17:37:48 10° E daylight
25 Oct - 19:11:04 10° NNW 19:17:27 83° ENE 19:23:47 10° SSE visible
25 Oct - 20:55:57 10° WNW 20:59:58 18° WSW 21:03:57 10° SW visible
26 Oct - 09:51:11 10° SSW 09:56:10 62° ESE 10:01:46 10° NE daylight
26 Oct - 11:35:40 10° W 11:39:56 24° NW 11:44:34 10° N daylight
26 Oct - 16:54:56 10° N 16:58:38 16° NE 17:02:22 10° ENE daylight
26 Oct - 18:36:53 10° NNW 18:43:10 62° NE 18:49:26 10° SE visible
26 Oct - 20:20:57 10° NW 20:26:00 25° WSW 20:31:00 10° SSW visible
27 Oct - 09:17:20 10° S 09:22:04 42° ESE 09:27:21 10° NE daylight
27 Oct - 11:00:46 10° WSW 11:05:26 31° NW 11:10:35 10° NNE daylight
27 Oct - 16:21:20 10° N 16:23:57 13° NNE 16:26:34 10° NE daylight
27 Oct - 18:02:46 10° NNW 18:08:50 46° NE 18:14:55 10° SE daylight
27 Oct - 19:46:18 10° NW 19:51:59 35° WSW 19:57:37 10° S visible
28 Oct - 08:43:45 10° SSE 08:48:04 29° ESE 08:52:47 10° NE daylight
28 Oct - 10:26:04 10° WSW 10:31:01 43° NW 10:36:31 10° NNE daylight
28 Oct - 12:14:30 10° NW 12:16:00 11° NNW 12:17:31 10° NNW daylight
28 Oct - 15:48:59 10° NNE 15:49:12 10° NNE 15:49:25 10° NNE daylight
28 Oct - 17:28:42 10° NNW 17:34:26 35° NE 17:40:11 10° ESE daylight
28 Oct - 19:11:48 10° NW 19:17:55 50° WSW 19:23:57 10° S visible
29 Oct - 08:10:31 10° SSE 08:14:06 19° ESE 08:17:57 10° ENE daylight
29 Oct - 09:51:34 10° SW 09:56:40 60° NW 10:02:24 10° NNE daylight
29 Oct - 11:38:27 10° WNW 11:41:17 14° NNW 11:44:15 10° N daylight
29 Oct - 16:54:42 10° NNW 16:59:58 27° NE 17:05:15 10° E daylight
29 Oct - 18:37:26 10° NW 18:43:46 69° WSW 18:50:02 10° SSE visible
29 Oct - 20:24:35 10° W 20:25:55 11° W 20:27:15 10° WSW visible
30 Oct - 07:38:00 10° SE 07:40:13 13° E 07:42:31 10° ENE daylight
30 Oct - 09:17:16 10° SSW 09:22:25 85° WNW 09:28:12 10° NNE daylight
30 Oct - 11:02:59 10° W 11:06:39 18° NW 11:10:32 10° N daylight
30 Oct - 16:20:46 10° N 16:25:26 21° NE 16:30:08 10° E daylight
30 Oct - 18:03:10 10° NNW 18:09:34 87° ENE 18:15:54 10° SSE visible
30 Oct - 19:48:17 10° WNW 19:52:02 16° WSW 19:55:44 10° SW visible
